Overview Statistics Trail Chart Weather Telemetry Raw packets
 

This is the latest recevied weather packets stored in our database for station/object KB4JAC-13. If no packets are shown the sender has not sent any weather packets the latest 10 day(s).

<< 1 2 3 4 5 6 >>
Time Temp. Humidity Pressure Rain* Wind** Luminosity Snow
1788549875 38.33° C 42% 990 hPa 0 mm - - -
1788549274 37.78° C 43% 990.2 hPa 0 mm - - -
1788548674 37.78° C 44% 990.2 hPa 0 mm - - -
1788548073 36.67° C 46% 990.4 hPa 0 mm - - -
1788547472 37.78° C 48% 990.7 hPa 0 mm - - -
1788546871 38.33° C 49% 990.7 hPa 0 mm - - -
1788546270 37.78° C 48% 990.9 hPa 0 mm - - -
1788545669 37.22° C 51% 990.8 hPa 0 mm - - -
1788545068 38.33° C 47% 991 hPa 0 mm - - -
1788544467 37.22° C 53% 991 hPa 0 mm - - -
1788543866 36.67° C 50% 991.2 hPa 0 mm - - -
1788543265 37.22° C 51% 991.4 hPa 0 mm - - -
1788542664 37.22° C 53% 991.5 hPa 0 mm - - -
1788542063 37.22° C 52% 991.6 hPa 0 mm - - -
1788541462 36.67° C 55% 991.8 hPa 0 mm - - -
1788540862 36.11° C 57% 991.6 hPa 0 mm - - -
1788540261 35.56° C 59% 992.2 hPa 0 mm - - -
1788539660 36.11° C 59% 992 hPa 0 mm - - -
1788539059 35.56° C 59% 992.1 hPa 0 mm - - -
1788538458 35.56° C 62% 992.1 hPa 0 mm - - -
1788537857 34.44° C 62% 992.1 hPa 0 mm - - -
1788537256 33.89° C 65% 992.1 hPa 0 mm - - -
1788536655 33.89° C 64% 992.3 hPa 0 mm - - -
1788536054 33.89° C 65% 992.3 hPa 0 mm - - -
1788535453 33.89° C 65% 992.4 hPa 0 mm - - -

* Rain since midnight (hover to see other rain measurements)
** Current wind speed in m/s (hover to see current wind gust speed)